This demonstration page uses our WeatherBlox Daily Observations layout. Learn more.

Hourly Observations for March 30, 2019

Temp ( °F °C ) Dew Point ( °F °C ) Humidity (%) Winds ( mph kmh ) Pressure ( in mb ) Visibility ( mi km ) Precip ( " mm )
12:15 am 00:15 Clear 52 11 46 8 82 82 Calm 30.09 1019 10 16.09344 0 0
12:35 am 00:35 Clear 52 11 46 8 82 82 NE 3 6 30.09 1019 10 16.09344 0 0
12:55 am 00:55 Clear 50 10 46 8 88 88 Calm 30.12 1020 10 16.09344 0 0
1:15 am 01:15 Clear 48 9 46 8 94 94 Calm 30.09 1019 10 16.09344 0 0
1:35 am 01:35 Partly Cloudy 48 9 46 8 94 94 Calm 30.09 1019 10 16.09344 0 0
1:55 am 01:55 Partly Cloudy 48 9 45 7 87 87 Calm 30.09 1019 10 16.09344 0 0
2:15 am 02:15 Cloudy 46 8 45 7 93 93 Calm 30.09 1019 10 16.09344 0 0
2:35 am 02:35 Partly Cloudy 46 8 45 7 93 93 Calm 30.09 1019 10 16.09344 0 0
2:55 am 02:55 Partly Cloudy 45 7 45 7 100 100 N 5 7 30.06 1018 10 16.09344 0 0
3:15 am 03:15 Partly Cloudy 46 8 45 7 93 93 Calm 30.06 1018 10 16.09344 0 0
3:35 am 03:35 Partly Cloudy 46 8 45 7 93 93 Calm 30.06 1018 10 16.09344 0 0
3:55 am 03:55 Partly Cloudy 46 8 43 6 87 87 Calm 30.06 1018 10 16.09344 0 0
4:15 am 04:15 Clear 46 8 43 6 87 87 Calm 30.03 1017 10 16.09344 0 0
4:35 am 04:35 Mostly Cloudy 45 7 45 7 100 100 Calm 30.03 1017 10 16.09344 0 0
4:55 am 04:55 Cloudy 45 7 45 7 100 100 NNW 6 9 30.06 1018 10 16.09344 0 0
5:15 am 05:15 Cloudy 48 9 45 7 87 87 Calm 30.06 1018 10 16.09344 0 0
5:35 am 05:35 Cloudy 50 10 45 7 82 82 Calm 30 1016 10 16.09344 0 0
5:55 am 05:55 Cloudy 46 8 45 7 93 93 Calm 30.06 1018 10 16.09344 0 0
6:15 am 06:15 Cloudy 48 9 45 7 87 87 Calm 30.06 1018 10 16.09344 0 0
6:35 am 06:35 Cloudy 46 8 45 7 93 93 Calm 30.06 1018 10 16.09344 0 0
6:55 am 06:55 Cloudy 46 8 45 7 93 93 Calm 30.06 1018 10 16.09344 0 0
7:15 am 07:15 Cloudy 48 9 45 7 87 87 Calm 30.06 1018 10 16.09344 0 0
7:35 am 07:35 Cloudy 48 9 45 7 87 87 Calm 30.06 1018 10 16.09344 0 0
7:55 am 07:55 Cloudy 50 10 46 8 88 88 Calm 30.03 1017 10 16.09344 0 0
8:15 am 08:15 Cloudy 50 10 46 8 88 88 Calm 30.03 1017 10 16.09344 0 0
8:35 am 08:35 Cloudy 50 10 46 8 88 88 Calm 30.03 1017 10 16.09344 0 0
8:55 am 08:55 Cloudy 52 11 46 8 82 82 Calm 30.03 1017 10 16.09344 0 0
9:15 am 09:15 Cloudy 52 11 46 8 82 82 Calm 30.03 1017 10 16.09344 0 0
9:35 am 09:35 Cloudy 54 12 46 8 77 77 Calm 30.03 1017 10 16.09344 0 0
9:55 am 09:55 Cloudy 54 12 46 8 77 77 SSW 3 6 30.03 1017 10 16.09344 0 0
10:15 am 10:15 Cloudy 55 13 46 8 72 72 SSW 3 6 30.03 1017 10 16.09344 0 0
10:35 am 10:35 Cloudy 57 14 48 9 72 72 Calm 30 1016 10 16.09344 0 0
10:55 am 10:55 Mostly Cloudy 61 16 48 9 63 63 Calm 30 1016 10 16.09344 0 0
11:15 am 11:15 Partly Cloudy 63 17 50 10 64 64 Calm 30 1016 10 16.09344 0 0
11:35 am 11:35 Mostly Cloudy 64 18 48 9 56 56 Calm 30 1016 10 16.09344 0 0
11:55 am 11:55 Partly Cloudy 68 20 48 9 49 49 SSE 6 9 29.97 1015 10 16.09344 0 0
12:15 pm 12:15 Sunny 68 20 48 9 49 49 SW 3 6 29.97 1015 10 16.09344 0 0
12:35 pm 12:35 Sunny 70 21 46 8 43 43 S 3 6 29.97 1015 10 16.09344 0 0
12:55 pm 12:55 Sunny 70 21 46 8 43 43 S 10 17 29.94 1014 10 16.09344 0 0
1:15 pm 13:15 Sunny 73 23 46 8 38 38 S 14 22 29.94 1014 10 16.09344 0 0
1:35 pm 13:35 Sunny 77 25 45 7 32 32 S 10 17 29.91 1013 10 16.09344 0 0
1:55 pm 13:55 Sunny 75 24 45 7 34 34 S 12 19 29.91 1013 10 16.09344 0 0
2:35 pm 14:35 Sunny 75 24 45 7 34 34 SSW 22 35 29.88 1012 10 16.09344 0 0
2:55 pm 14:55 Sunny 75 24 45 7 34 34 SW 14 22 29.88 1012 10 16.09344 0 0
3:15 pm 15:15 Sunny 77 25 45 7 32 32 SSW 14 22 29.88 1012 10 16.09344 0 0
3:35 pm 15:35 Sunny 77 25 45 7 32 32 S 18 30 29.85 1011 10 16.09344 0 0
3:55 pm 15:55 Sunny 77 25 45 7 32 32 SW 12 19 29.85 1011 10 16.09344 0 0
4:15 pm 16:15 Sunny 77 25 45 7 32 32 S 20 31 29.85 1011 10 16.09344 0 0
4:35 pm 16:35 Sunny 77 25 45 7 32 32 S 16 26 29.85 1011 10 16.09344 0 0
4:55 pm 16:55 Sunny 77 25 45 7 32 32 S 20 31 29.83 1010 10 16.09344 0 0
5:15 pm 17:15 Sunny 77 25 46 8 34 34 S 18 30 29.83 1010 10 16.09344 0 0
5:35 pm 17:35 Sunny 77 25 46 8 34 34 SSW 14 22 29.83 1010 10 16.09344 0 0
5:55 pm 17:55 Sunny 77 25 46 8 34 34 S 16 26 29.83 1010 10 16.09344 0 0
6:15 pm 18:15 Sunny 75 24 46 8 36 36 S 12 19 29.8 1009 10 16.09344 0 0
6:35 pm 18:35 Sunny 73 23 46 8 38 38 SSW 21 33 29.8 1009 10 16.09344 0 0
6:55 pm 18:55 Sunny 73 23 45 7 36 36 S 9 15 29.8 1009 10 16.09344 0 0
7:15 pm 19:15 Sunny 73 23 45 7 36 36 S 10 17 29.8 1009 10 16.09344 0 0
7:35 pm 19:35 Clear 72 22 46 8 41 41 S 13 20 29.8 1009 10 16.09344 0 0
7:55 pm 19:55 Clear 72 22 46 8 41 41 S 14 22 29.8 1009 10 16.09344 0 0
8:15 pm 20:15 Clear 72 22 46 8 41 41 S 10 17 29.8 1009 10 16.09344 0 0
8:35 pm 20:35 Clear 72 22 48 9 44 44 S 12 19 29.8 1009 10 16.09344 0 0
8:55 pm 20:55 Clear 72 22 48 9 44 44 S 12 19 29.8 1009 10 16.09344 0 0
9:15 pm 21:15 Clear 70 21 48 9 46 46 S 13 20 29.8 1009 10 16.09344 0 0
9:35 pm 21:35 Clear 70 21 48 9 46 46 S 12 19 29.8 1009 10 16.09344 0 0
9:55 pm 21:55 Clear 70 21 48 9 46 46 S 15 24 29.77 1008 10 16.09344 0 0
10:15 pm 22:15 Clear 70 21 48 9 46 46 S 13 20 29.77 1008 10 16.09344 0 0
10:35 pm 22:35 Clear 68 20 48 9 49 49 S 12 19 29.77 1008 10 16.09344 0 0
10:55 pm 22:55 Clear 68 20 48 9 49 49 S 15 24 29.77 1008 10 16.09344 0 0
11:15 pm 23:15 Clear 68 20 48 9 49 49 S 15 24 29.74 1007 10 16.09344 0 0
11:35 pm 23:35 Clear 68 20 48 9 49 49 S 10 17 29.74 1007 10 16.09344 0 0
11:55 pm 23:55 Clear 66 19 48 9 52 52 S 14 22 29.74 1007 10 16.09344 0 0

Powered by AerisWeather